Regional Weather Roundup
Issued by NWS

Home | Current Version | Previous Version | Text Only | Print | Product List | Glossary Off
Versions: 1 2 3 4 5 6 7 8 9 10 11 12 13 14 15 16 17 18 19 20 21 22 23 24 25 26 27 28 29 30 31 32 33 34 35 36 37 38 39 40 41 42 43 44 45 46 47 48 49 50

000
ASUS44 KMEG 302210
RWRTN
TENNESSEE HOURLY STATE WEATHER ROUNDUP
NATIONAL WEATHER SERVICE MEMPHIS TN
500 PM CDT WED JUL 30 2014

TNZ002-004-019-021-049-052-054-088>092-302300-
WEST TENNESSEE

CITY           SKY/WX    TMP DP  RH WIND       PRES   REMARKS
MEMPHIS INTL   CLOUDY    82  57  42 NW9       30.08S
NWS MEMPHIS      N/A     81 N/A N/A MISG        N/A
JACKSON        PTSUNNY   81  56  42 W6        30.09S
DYERSBURG      CLOUDY    79  55  44 W3        30.10S
UNION CITY     MOSUNNY   77  61  57 W3        30.08F
PARIS          CLOUDY    76  59  55 NW3       30.10S
LEXINGTON      SUNNY     79  55  44 N3        30.08F
SAVANNAH       PTSUNNY   82  59  45 NE8       30.09S
$$

TNZ008-025-027-028-033-062-065-066-302300-
NORTH MIDDLE TENNESSEE

CITY           SKY/WX    TMP DP  RH WIND       PRES   REMARKS
NASHVILLE      CLOUDY    80  54  40 CALM      30.08F
DICKSON        PTSUNNY   79  52  38 VRB5      30.09F
PORTLAND       SUNNY     79  55  44 SW6       30.07F
CLARKSVILLE    CLOUDY    80  52  37 W8        30.08S
LEBANON        PTSUNNY   79  55  43 NW6       30.06F
SMYRNA         PTSUNNY   83  57  40 N7        30.08F
MURFREESBORO   PTSUNNY   80  56  43 N3        30.07F
COOKEVILLE     SUNNY     79  64  61 CALM      30.09F
GALLATIN       PTSUNNY   81  57  43 NW6       30.08
CROSSVILLE     CLOUDY    73  55  53 N5        30.13S
$$

TNZ061-075-076-078-094-096-097-302300-
SOUTH MIDDLE TENNESSEE

CITY           SKY/WX    TMP DP  RH WIND       PRES   REMARKS
LEWISBURG      PTSUNNY   79  58  48 N5        30.08S
FAYETTEVILLE   MOSUNNY   77  55  47 N8G25     30.08S
TULLAHOMA      SUNNY     77  57  50 N6        30.10S
WINCHESTER     SUNNY     79  57  47 N7        30.09S
MCMINNVILLE    SUNNY     77  61  57 N6        30.10S
COLUMBIA       SUNNY     81  57  44 N3        30.08S
SHELBYVILLE    MOSUNNY   81  59  47 NW3       30.10R
$$

TNZ017-018-042-046-047-302300-
NORTHEAST TENNESSEE

CITY           SKY/WX    TMP DP  RH WIND       PRES   REMARKS
TRI CITIES     MOSUNNY   78  51  38 N5        30.09F
ELIZABETHTON   CLEAR     75  54  46 W6          N/A
$$

TNZ012-013-036-069-073-074-302300-
CENTRAL EAST TENNESSEE

CITY           SKY/WX    TMP DP  RH WIND       PRES   REMARKS
KNOXVILLE      CLOUDY    76  53  44 NE7       30.07F
OAK RIDGE      CLOUDY    77  55  46 E6        30.09F
GATLINBURG     CLEAR     75  55  50 CALM      30.08S
MORRISTOWN     CLEAR     75  54  46 CALM      30.10F
$$

TNZ083-085-099-302300-
SOUTHEAST TENNESSEE

CITY           SKY/WX    TMP DP  RH WIND       PRES   REMARKS
CHATTANOOGA    PTSUNNY   81  52  36 N10       30.07S
$$

SKY/WX REPORTED AS FAIR MEANS FEW OR NO CLOUDS BELOW
12 THOUSAND FEET.



USA.gov is the U.S. government's official web portal to all federal, state and local government web resources and services.